Index of /20260504/WXO-DD/model_rdps/10km/12/073
Name Last modified Size Description
Parent Directory -
20260504T12Z_MSC_RDPS_AbsoluteVorticity_IsbL-0250_RLatLon0.09_PT073H.grib2 2026-05-04 15:09 594K
20260504T12Z_MSC_RDPS_AbsoluteVorticity_IsbL-0500_RLatLon0.09_PT073H.grib2 2026-05-04 15:09 555K
20260504T12Z_MSC_RDPS_AbsoluteVorticity_IsbL-0700_RLatLon0.09_PT073H.grib2 2026-05-04 15:09 605K
20260504T12Z_MSC_RDPS_AbsoluteVorticity_IsbL-0850_RLatLon0.09_PT073H.grib2 2026-05-04 15:09 785K
20260504T12Z_MSC_RDPS_AirTemp_AGL-120m_RLatLon0.09_PT073H.grib2 2026-05-04 15:09 385K
20260504T12Z_MSC_RDPS_AirTemp_AGL-2m_RLatLon0.09_PT073H.grib2 2026-05-04 15:09 629K
20260504T12Z_MSC_RDPS_AirTemp_AGL-40m_RLatLon0.09_PT073H.grib2 2026-05-04 15:09 400K
20260504T12Z_MSC_RDPS_AirTemp_AGL-80m_RLatLon0.09_PT073H.grib2 2026-05-04 15:09 393K
20260504T12Z_MSC_RDPS_AirTemp_IsbL-0001_RLatLon0.09_PT073H.grib2 2026-05-04 15:09 241K
20260504T12Z_MSC_RDPS_AirTemp_IsbL-0005_RLatLon0.09_PT073H.grib2 2026-05-04 15:09 290K
20260504T12Z_MSC_RDPS_AirTemp_IsbL-0010_RLatLon0.09_PT073H.grib2 2026-05-04 15:09 394K
20260504T12Z_MSC_RDPS_AirTemp_IsbL-0020_RLatLon0.09_PT073H.grib2 2026-05-04 15:09 324K
20260504T12Z_MSC_RDPS_AirTemp_IsbL-0030_RLatLon0.09_PT073H.grib2 2026-05-04 15:09 340K
20260504T12Z_MSC_RDPS_AirTemp_IsbL-0050_RLatLon0.09_PT073H.grib2 2026-05-04 15:09 311K
20260504T12Z_MSC_RDPS_AirTemp_IsbL-0100_RLatLon0.09_PT073H.grib2 2026-05-04 15:09 419K
20260504T12Z_MSC_RDPS_AirTemp_IsbL-0150_RLatLon0.09_PT073H.grib2 2026-05-04 15:09 407K
20260504T12Z_MSC_RDPS_AirTemp_IsbL-0175_RLatLon0.09_PT073H.grib2 2026-05-04 15:09 402K
20260504T12Z_MSC_RDPS_AirTemp_IsbL-0200_RLatLon0.09_PT073H.grib2 2026-05-04 15:09 410K
20260504T12Z_MSC_RDPS_AirTemp_IsbL-0225_RLatLon0.09_PT073H.grib2 2026-05-04 15:09 412K
20260504T12Z_MSC_RDPS_AirTemp_IsbL-0250_RLatLon0.09_PT073H.grib2 2026-05-04 15:09 418K
20260504T12Z_MSC_RDPS_AirTemp_IsbL-0275_RLatLon0.09_PT073H.grib2 2026-05-04 15:09 398K
20260504T12Z_MSC_RDPS_AirTemp_IsbL-0300_RLatLon0.09_PT073H.grib2 2026-05-04 15:09 406K
20260504T12Z_MSC_RDPS_AirTemp_IsbL-0350_RLatLon0.09_PT073H.grib2 2026-05-04 15:09 419K
20260504T12Z_MSC_RDPS_AirTemp_IsbL-0400_RLatLon0.09_PT073H.grib2 2026-05-04 15:09 419K
20260504T12Z_MSC_RDPS_AirTemp_IsbL-0450_RLatLon0.09_PT073H.grib2 2026-05-04 15:09 427K
20260504T12Z_MSC_RDPS_AirTemp_IsbL-0500_RLatLon0.09_PT073H.grib2 2026-05-04 15:09 437K
20260504T12Z_MSC_RDPS_AirTemp_IsbL-0550_RLatLon0.09_PT073H.grib2 2026-05-04 15:09 418K
20260504T12Z_MSC_RDPS_AirTemp_IsbL-0600_RLatLon0.09_PT073H.grib2 2026-05-04 15:09 435K
20260504T12Z_MSC_RDPS_AirTemp_IsbL-0650_RLatLon0.09_PT073H.grib2 2026-05-04 15:09 448K
20260504T12Z_MSC_RDPS_AirTemp_IsbL-0700_RLatLon0.09_PT073H.grib2 2026-05-04 15:09 472K
20260504T12Z_MSC_RDPS_AirTemp_IsbL-0750_RLatLon0.09_PT073H.grib2 2026-05-04 15:09 514K
20260504T12Z_MSC_RDPS_AirTemp_IsbL-0800_RLatLon0.09_PT073H.grib2 2026-05-04 15:09 571K
20260504T12Z_MSC_RDPS_AirTemp_IsbL-0850_RLatLon0.09_PT073H.grib2 2026-05-04 15:09 634K
20260504T12Z_MSC_RDPS_AirTemp_IsbL-0875_RLatLon0.09_PT073H.grib2 2026-05-04 15:09 527K
20260504T12Z_MSC_RDPS_AirTemp_IsbL-0900_RLatLon0.09_PT073H.grib2 2026-05-04 15:09 536K
20260504T12Z_MSC_RDPS_AirTemp_IsbL-0925_RLatLon0.09_PT073H.grib2 2026-05-04 15:09 536K
20260504T12Z_MSC_RDPS_AirTemp_IsbL-0950_RLatLon0.09_PT073H.grib2 2026-05-04 15:09 533K
20260504T12Z_MSC_RDPS_AirTemp_IsbL-0970_RLatLon0.09_PT073H.grib2 2026-05-04 15:09 529K
20260504T12Z_MSC_RDPS_AirTemp_IsbL-0985_RLatLon0.09_PT073H.grib2 2026-05-04 15:09 517K
20260504T12Z_MSC_RDPS_AirTemp_IsbL-1000_RLatLon0.09_PT073H.grib2 2026-05-04 15:09 500K
20260504T12Z_MSC_RDPS_AirTemp_IsbL-1015_RLatLon0.09_PT073H.grib2 2026-05-04 15:09 499K
20260504T12Z_MSC_RDPS_Albedo_Sfc_RLatLon0.09_PT073H.grib2 2026-05-04 15:09 153K
20260504T12Z_MSC_RDPS_CAPE_Sfc_RLatLon0.09_PT073H.grib2 2026-05-04 15:09 1.7M
20260504T12Z_MSC_RDPS_CIN_Sfc_RLatLon0.09_PT073H.grib2 2026-05-04 15:09 1.1M
20260504T12Z_MSC_RDPS_CloudWater_EAtm_RLatLon0.09_PT073H.grib2 2026-05-04 15:09 224K
20260504T12Z_MSC_RDPS_ConvectivePrecip-Accum_Sfc_RLatLon0.09_PT073H.grib2 2026-05-04 15:09 1.2M
20260504T12Z_MSC_RDPS_DewPointDepression_AGL-2m_RLatLon0.09_PT073H.grib2 2026-05-04 15:09 411K
20260504T12Z_MSC_RDPS_DewPointDepression_IsbL-0001_RLatLon0.09_PT073H.grib2 2026-05-04 15:09 193
20260504T12Z_MSC_RDPS_DewPointDepression_IsbL-0005_RLatLon0.09_PT073H.grib2 2026-05-04 15:09 193
20260504T12Z_MSC_RDPS_DewPointDepression_IsbL-0010_RLatLon0.09_PT073H.grib2 2026-05-04 15:09 193
20260504T12Z_MSC_RDPS_DewPointDepression_IsbL-0020_RLatLon0.09_PT073H.grib2 2026-05-04 15:09 193
20260504T12Z_MSC_RDPS_DewPointDepression_IsbL-0030_RLatLon0.09_PT073H.grib2 2026-05-04 15:09 193
20260504T12Z_MSC_RDPS_DewPointDepression_IsbL-0050_RLatLon0.09_PT073H.grib2 2026-05-04 15:09 110K
20260504T12Z_MSC_RDPS_DewPointDepression_IsbL-0100_RLatLon0.09_PT073H.grib2 2026-05-04 15:09 112K
20260504T12Z_MSC_RDPS_DewPointDepression_IsbL-0150_RLatLon0.09_PT073H.grib2 2026-05-04 15:09 133K
20260504T12Z_MSC_RDPS_DewPointDepression_IsbL-0175_RLatLon0.09_PT073H.grib2 2026-05-04 15:09 175K
20260504T12Z_MSC_RDPS_DewPointDepression_IsbL-0200_RLatLon0.09_PT073H.grib2 2026-05-04 15:09 218K
20260504T12Z_MSC_RDPS_DewPointDepression_IsbL-0225_RLatLon0.09_PT073H.grib2 2026-05-04 15:09 250K
20260504T12Z_MSC_RDPS_DewPointDepression_IsbL-0250_RLatLon0.09_PT073H.grib2 2026-05-04 15:09 298K
20260504T12Z_MSC_RDPS_DewPointDepression_IsbL-0275_RLatLon0.09_PT073H.grib2 2026-05-04 15:09 307K
20260504T12Z_MSC_RDPS_DewPointDepression_IsbL-0300_RLatLon0.09_PT073H.grib2 2026-05-04 15:09 324K
20260504T12Z_MSC_RDPS_DewPointDepression_IsbL-0350_RLatLon0.09_PT073H.grib2 2026-05-04 15:09 328K
20260504T12Z_MSC_RDPS_DewPointDepression_IsbL-0400_RLatLon0.09_PT073H.grib2 2026-05-04 15:09 338K
20260504T12Z_MSC_RDPS_DewPointDepression_IsbL-0450_RLatLon0.09_PT073H.grib2 2026-05-04 15:09 345K
20260504T12Z_MSC_RDPS_DewPointDepression_IsbL-0500_RLatLon0.09_PT073H.grib2 2026-05-04 15:09 348K
20260504T12Z_MSC_RDPS_DewPointDepression_IsbL-0550_RLatLon0.09_PT073H.grib2 2026-05-04 15:09 356K
20260504T12Z_MSC_RDPS_DewPointDepression_IsbL-0600_RLatLon0.09_PT073H.grib2 2026-05-04 15:09 363K
20260504T12Z_MSC_RDPS_DewPointDepression_IsbL-0650_RLatLon0.09_PT073H.grib2 2026-05-04 15:09 365K
20260504T12Z_MSC_RDPS_DewPointDepression_IsbL-0700_RLatLon0.09_PT073H.grib2 2026-05-04 15:09 373K
20260504T12Z_MSC_RDPS_DewPointDepression_IsbL-0750_RLatLon0.09_PT073H.grib2 2026-05-04 15:09 397K
20260504T12Z_MSC_RDPS_DewPointDepression_IsbL-0800_RLatLon0.09_PT073H.grib2 2026-05-04 15:09 441K
20260504T12Z_MSC_RDPS_DewPointDepression_IsbL-0850_RLatLon0.09_PT073H.grib2 2026-05-04 15:09 482K
20260504T12Z_MSC_RDPS_DewPointDepression_IsbL-0875_RLatLon0.09_PT073H.grib2 2026-05-04 15:09 481K
20260504T12Z_MSC_RDPS_DewPointDepression_IsbL-0900_RLatLon0.09_PT073H.grib2 2026-05-04 15:09 472K
20260504T12Z_MSC_RDPS_DewPointDepression_IsbL-0925_RLatLon0.09_PT073H.grib2 2026-05-04 15:09 459K
20260504T12Z_MSC_RDPS_DewPointDepression_IsbL-0950_RLatLon0.09_PT073H.grib2 2026-05-04 15:09 449K
20260504T12Z_MSC_RDPS_DewPointDepression_IsbL-0970_RLatLon0.09_PT073H.grib2 2026-05-04 15:09 442K
20260504T12Z_MSC_RDPS_DewPointDepression_IsbL-0985_RLatLon0.09_PT073H.grib2 2026-05-04 15:09 441K
20260504T12Z_MSC_RDPS_DewPointDepression_IsbL-1000_RLatLon0.09_PT073H.grib2 2026-05-04 15:09 438K
20260504T12Z_MSC_RDPS_DewPointDepression_IsbL-1015_RLatLon0.09_PT073H.grib2 2026-05-04 15:09 428K
20260504T12Z_MSC_RDPS_DewPoint_AGL-2m_RLatLon0.09_PT073H.grib2 2026-05-04 15:09 404K
20260504T12Z_MSC_RDPS_DownwardLongwaveRadiationFlux-Accum_Sfc_RLatLon0.09_PT073H.grib2 2026-05-04 15:09 430K
20260504T12Z_MSC_RDPS_DownwardShortwaveRadiationFlux-Accum_NTAtm_RLatLon0.09_PT073H.grib2 2026-05-04 15:09 135K
20260504T12Z_MSC_RDPS_DownwardShortwaveRadiationFlux-Accum_Sfc_RLatLon0.09_PT073H.grib2 2026-05-04 15:09 635K
20260504T12Z_MSC_RDPS_FreezingRain-Accum1h_Sfc_RLatLon0.09_PT073H.grib2 2026-05-04 15:09 48K
20260504T12Z_MSC_RDPS_FreezingRain-Accum_Sfc_RLatLon0.09_PT073H.grib2 2026-05-04 15:09 214K
20260504T12Z_MSC_RDPS_GeopotentialHeight_IsbL-0001_RLatLon0.09_PT073H.grib2 2026-05-04 15:09 244K
20260504T12Z_MSC_RDPS_GeopotentialHeight_IsbL-0005_RLatLon0.09_PT073H.grib2 2026-05-04 15:09 341K
20260504T12Z_MSC_RDPS_GeopotentialHeight_IsbL-0010_RLatLon0.09_PT073H.grib2 2026-05-04 15:09 342K
20260504T12Z_MSC_RDPS_GeopotentialHeight_IsbL-0020_RLatLon0.09_PT073H.grib2 2026-05-04 15:09 309K
20260504T12Z_MSC_RDPS_GeopotentialHeight_IsbL-0030_RLatLon0.09_PT073H.grib2 2026-05-04 15:09 312K
20260504T12Z_MSC_RDPS_GeopotentialHeight_IsbL-0050_RLatLon0.09_PT073H.grib2 2026-05-04 15:09 312K
20260504T12Z_MSC_RDPS_GeopotentialHeight_IsbL-0100_RLatLon0.09_PT073H.grib2 2026-05-04 15:09 286K
20260504T12Z_MSC_RDPS_GeopotentialHeight_IsbL-0150_RLatLon0.09_PT073H.grib2 2026-05-04 15:09 228K
20260504T12Z_MSC_RDPS_GeopotentialHeight_IsbL-0175_RLatLon0.09_PT073H.grib2 2026-05-04 15:09 231K
20260504T12Z_MSC_RDPS_GeopotentialHeight_IsbL-0200_RLatLon0.09_PT073H.grib2 2026-05-04 15:09 234K
20260504T12Z_MSC_RDPS_GeopotentialHeight_IsbL-0225_RLatLon0.09_PT073H.grib2 2026-05-04 15:09 236K
20260504T12Z_MSC_RDPS_GeopotentialHeight_IsbL-0250_RLatLon0.09_PT073H.grib2 2026-05-04 15:09 237K
20260504T12Z_MSC_RDPS_GeopotentialHeight_IsbL-0275_RLatLon0.09_PT073H.grib2 2026-05-04 15:09 236K
20260504T12Z_MSC_RDPS_GeopotentialHeight_IsbL-0300_RLatLon0.09_PT073H.grib2 2026-05-04 15:09 236K
20260504T12Z_MSC_RDPS_GeopotentialHeight_IsbL-0350_RLatLon0.09_PT073H.grib2 2026-05-04 15:09 232K
20260504T12Z_MSC_RDPS_GeopotentialHeight_IsbL-0400_RLatLon0.09_PT073H.grib2 2026-05-04 15:09 229K
20260504T12Z_MSC_RDPS_GeopotentialHeight_IsbL-0450_RLatLon0.09_PT073H.grib2 2026-05-04 15:09 296K
20260504T12Z_MSC_RDPS_GeopotentialHeight_IsbL-0500_RLatLon0.09_PT073H.grib2 2026-05-04 15:09 290K
20260504T12Z_MSC_RDPS_GeopotentialHeight_IsbL-0550_RLatLon0.09_PT073H.grib2 2026-05-04 15:09 286K
20260504T12Z_MSC_RDPS_GeopotentialHeight_IsbL-0600_RLatLon0.09_PT073H.grib2 2026-05-04 15:09 283K
20260504T12Z_MSC_RDPS_GeopotentialHeight_IsbL-0650_RLatLon0.09_PT073H.grib2 2026-05-04 15:09 252K
20260504T12Z_MSC_RDPS_GeopotentialHeight_IsbL-0700_RLatLon0.09_PT073H.grib2 2026-05-04 15:09 332K
20260504T12Z_MSC_RDPS_GeopotentialHeight_IsbL-0750_RLatLon0.09_PT073H.grib2 2026-05-04 15:09 335K
20260504T12Z_MSC_RDPS_GeopotentialHeight_IsbL-0800_RLatLon0.09_PT073H.grib2 2026-05-04 15:09 376K
20260504T12Z_MSC_RDPS_GeopotentialHeight_IsbL-0850_RLatLon0.09_PT073H.grib2 2026-05-04 15:09 388K
20260504T12Z_MSC_RDPS_GeopotentialHeight_IsbL-0875_RLatLon0.09_PT073H.grib2 2026-05-04 15:09 391K
20260504T12Z_MSC_RDPS_GeopotentialHeight_IsbL-0900_RLatLon0.09_PT073H.grib2 2026-05-04 15:09 394K
20260504T12Z_MSC_RDPS_GeopotentialHeight_IsbL-0925_RLatLon0.09_PT073H.grib2 2026-05-04 15:09 372K
20260504T12Z_MSC_RDPS_GeopotentialHeight_IsbL-0950_RLatLon0.09_PT073H.grib2 2026-05-04 15:09 374K
20260504T12Z_MSC_RDPS_GeopotentialHeight_IsbL-0970_RLatLon0.09_PT073H.grib2 2026-05-04 15:09 380K
20260504T12Z_MSC_RDPS_GeopotentialHeight_IsbL-0985_RLatLon0.09_PT073H.grib2 2026-05-04 15:09 390K
20260504T12Z_MSC_RDPS_GeopotentialHeight_IsbL-1000_RLatLon0.09_PT073H.grib2 2026-05-04 15:09 405K
20260504T12Z_MSC_RDPS_GeopotentialHeight_IsbL-1015_RLatLon0.09_PT073H.grib2 2026-05-04 15:09 423K
20260504T12Z_MSC_RDPS_Humidex_Sfc_RLatLon0.09_PT073H.grib2 2026-05-04 15:09 2.4M
20260504T12Z_MSC_RDPS_IcePellets-Accum1h_Sfc_RLatLon0.09_PT073H.grib2 2026-05-04 15:09 4.2K
20260504T12Z_MSC_RDPS_IcePellets-Accum_Sfc_RLatLon0.09_PT073H.grib2 2026-05-04 15:09 40K
20260504T12Z_MSC_RDPS_KIndex_Sfc_RLatLon0.09_PT073H.grib2 2026-05-04 15:09 2.5M
20260504T12Z_MSC_RDPS_LatentHeatNetFlux_Sfc_RLatLon0.09_PT073H.grib2 2026-05-04 15:09 347K
20260504T12Z_MSC_RDPS_LiftedIndex-MU-VT_IsbL-0500_RLatLon0.09_PT073H.grib2 2026-05-04 15:09 2.4M
20260504T12Z_MSC_RDPS_NetLongwaveRadiationFlux-Accum_Sfc_RLatLon0.09_PT073H.grib2 2026-05-04 15:09 615K
20260504T12Z_MSC_RDPS_NetShortwaveRadiationFlux-Accum_Sfc_RLatLon0.09_PT073H.grib2 2026-05-04 15:09 633K
20260504T12Z_MSC_RDPS_PlanetaryBoundaryLayerHeight_Sfc_RLatLon0.09_PT073H.grib2 2026-05-04 15:09 1.0M
20260504T12Z_MSC_RDPS_Precip-Accum1h_Sfc_RLatLon0.09_PT073H.grib2 2026-05-04 15:09 1.3M
20260504T12Z_MSC_RDPS_Precip-Accum_Sfc_RLatLon0.09_PT073H.grib2 2026-05-04 15:09 2.2M
20260504T12Z_MSC_RDPS_PrecipRate_Sfc_RLatLon0.09_PT073H.grib2 2026-05-04 15:09 170K
20260504T12Z_MSC_RDPS_PrecipType-Instant_Sfc_RLatLon0.09_PT073H.grib2 2026-05-04 15:09 601K
20260504T12Z_MSC_RDPS_Pressure-Trend3h_Sfc_RLatLon0.09_PT073H.grib2 2026-05-04 15:09 1.2M
20260504T12Z_MSC_RDPS_Pressure_MSL_RLatLon0.09_PT073H.grib2 2026-05-04 15:09 389K
20260504T12Z_MSC_RDPS_Pressure_PVU-1.5_RLatLon0.09_PT073H.grib2 2026-05-04 15:09 2.5M
20260504T12Z_MSC_RDPS_Pressure_PVU-1_RLatLon0.09_PT073H.grib2 2026-05-04 15:09 2.4M
20260504T12Z_MSC_RDPS_Pressure_PVU-2_RLatLon0.09_PT073H.grib2 2026-05-04 15:09 2.4M
20260504T12Z_MSC_RDPS_Pressure_Sfc_RLatLon0.09_PT073H.grib2 2026-05-04 15:09 499K
20260504T12Z_MSC_RDPS_RadiativeTemp_Sfc_RLatLon0.09_PT073H.grib2 2026-05-04 15:09 308K
20260504T12Z_MSC_RDPS_Rain-Accum1h_Sfc_RLatLon0.09_PT073H.grib2 2026-05-04 15:09 653K
20260504T12Z_MSC_RDPS_Rain-Accum_Sfc_RLatLon0.09_PT073H.grib2 2026-05-04 15:09 1.8M
20260504T12Z_MSC_RDPS_RelativeHumidity_AGL-2m_RLatLon0.09_PT073H.grib2 2026-05-04 15:09 1.0M
20260504T12Z_MSC_RDPS_RelativeHumidity_IsbL-0010_RLatLon0.09_PT073H.grib2 2026-05-04 15:09 700K
20260504T12Z_MSC_RDPS_RelativeHumidity_IsbL-0020_RLatLon0.09_PT073H.grib2 2026-05-04 15:09 650K
20260504T12Z_MSC_RDPS_RelativeHumidity_IsbL-0030_RLatLon0.09_PT073H.grib2 2026-05-04 15:09 603K
20260504T12Z_MSC_RDPS_RelativeHumidity_IsbL-0050_RLatLon0.09_PT073H.grib2 2026-05-04 15:09 354K
20260504T12Z_MSC_RDPS_RelativeHumidity_IsbL-0100_RLatLon0.09_PT073H.grib2 2026-05-04 15:09 275K
20260504T12Z_MSC_RDPS_RelativeHumidity_IsbL-0150_RLatLon0.09_PT073H.grib2 2026-05-04 15:09 401K
20260504T12Z_MSC_RDPS_RelativeHumidity_IsbL-0175_RLatLon0.09_PT073H.grib2 2026-05-04 15:09 464K
20260504T12Z_MSC_RDPS_RelativeHumidity_IsbL-0200_RLatLon0.09_PT073H.grib2 2026-05-04 15:09 543K
20260504T12Z_MSC_RDPS_RelativeHumidity_IsbL-0225_RLatLon0.09_PT073H.grib2 2026-05-04 15:09 606K
20260504T12Z_MSC_RDPS_RelativeHumidity_IsbL-0250_RLatLon0.09_PT073H.grib2 2026-05-04 15:09 671K
20260504T12Z_MSC_RDPS_RelativeHumidity_IsbL-0275_RLatLon0.09_PT073H.grib2 2026-05-04 15:09 698K
20260504T12Z_MSC_RDPS_RelativeHumidity_IsbL-0300_RLatLon0.09_PT073H.grib2 2026-05-04 15:09 744K
20260504T12Z_MSC_RDPS_RelativeHumidity_IsbL-0350_RLatLon0.09_PT073H.grib2 2026-05-04 15:09 769K
20260504T12Z_MSC_RDPS_RelativeHumidity_IsbL-0400_RLatLon0.09_PT073H.grib2 2026-05-04 15:09 782K
20260504T12Z_MSC_RDPS_RelativeHumidity_IsbL-0450_RLatLon0.09_PT073H.grib2 2026-05-04 15:09 791K
20260504T12Z_MSC_RDPS_RelativeHumidity_IsbL-0500_RLatLon0.09_PT073H.grib2 2026-05-04 15:09 793K
20260504T12Z_MSC_RDPS_RelativeHumidity_IsbL-0550_RLatLon0.09_PT073H.grib2 2026-05-04 15:09 807K
20260504T12Z_MSC_RDPS_RelativeHumidity_IsbL-0600_RLatLon0.09_PT073H.grib2 2026-05-04 15:09 826K
20260504T12Z_MSC_RDPS_RelativeHumidity_IsbL-0650_RLatLon0.09_PT073H.grib2 2026-05-04 15:09 833K
20260504T12Z_MSC_RDPS_RelativeHumidity_IsbL-0700_RLatLon0.09_PT073H.grib2 2026-05-04 15:09 853K
20260504T12Z_MSC_RDPS_RelativeHumidity_IsbL-0750_RLatLon0.09_PT073H.grib2 2026-05-04 15:09 901K
20260504T12Z_MSC_RDPS_RelativeHumidity_IsbL-0800_RLatLon0.09_PT073H.grib2 2026-05-04 15:09 1.0M
20260504T12Z_MSC_RDPS_RelativeHumidity_IsbL-0850_RLatLon0.09_PT073H.grib2 2026-05-04 15:09 1.0M
20260504T12Z_MSC_RDPS_RelativeHumidity_IsbL-0875_RLatLon0.09_PT073H.grib2 2026-05-04 15:09 1.1M
20260504T12Z_MSC_RDPS_RelativeHumidity_IsbL-0900_RLatLon0.09_PT073H.grib2 2026-05-04 15:09 1.1M
20260504T12Z_MSC_RDPS_RelativeHumidity_IsbL-0925_RLatLon0.09_PT073H.grib2 2026-05-04 15:09 1.1M
20260504T12Z_MSC_RDPS_RelativeHumidity_IsbL-0950_RLatLon0.09_PT073H.grib2 2026-05-04 15:09 1.1M
20260504T12Z_MSC_RDPS_RelativeHumidity_IsbL-0970_RLatLon0.09_PT073H.grib2 2026-05-04 15:09 1.1M
20260504T12Z_MSC_RDPS_RelativeHumidity_IsbL-0985_RLatLon0.09_PT073H.grib2 2026-05-04 15:09 1.1M
20260504T12Z_MSC_RDPS_RelativeHumidity_IsbL-1000_RLatLon0.09_PT073H.grib2 2026-05-04 15:09 1.0M
20260504T12Z_MSC_RDPS_RelativeHumidity_IsbL-1015_RLatLon0.09_PT073H.grib2 2026-05-04 15:09 1.0M
20260504T12Z_MSC_RDPS_Runoff-Accum_Sfc_RLatLon0.09_PT073H.grib2 2026-05-04 15:09 68K
20260504T12Z_MSC_RDPS_SWEATIndex_Sfc_RLatLon0.09_PT073H.grib2 2026-05-04 15:09 2.4M
20260504T12Z_MSC_RDPS_SeeingIndex_EAtm_RLatLon0.09_PT073H.grib2 2026-05-04 15:09 1.0M
20260504T12Z_MSC_RDPS_SensibleHeatNetFlux_Sfc_RLatLon0.09_PT073H.grib2 2026-05-04 15:09 318K
20260504T12Z_MSC_RDPS_ShowalterIndex_IsbL-0500_RLatLon0.09_PT073H.grib2 2026-05-04 15:09 2.6M
20260504T12Z_MSC_RDPS_SkyTransparencyIndex_EAtm_RLatLon0.09_PT073H.grib2 2026-05-04 15:09 738K
20260504T12Z_MSC_RDPS_Snow-Accum1h_Sfc_RLatLon0.09_PT073H.grib2 2026-05-04 15:09 525K
20260504T12Z_MSC_RDPS_Snow-Accum_Sfc_RLatLon0.09_PT073H.grib2 2026-05-04 15:09 799K
20260504T12Z_MSC_RDPS_SnowDensity_Sfc_RLatLon0.09_PT073H.grib2 2026-05-04 15:09 178K
20260504T12Z_MSC_RDPS_SnowDepth_Sfc_RLatLon0.09_PT073H.grib2 2026-05-04 15:09 651K
20260504T12Z_MSC_RDPS_SoilTemp_DBS-0to10cm_RLatLon0.09_PT073H.grib2 2026-05-04 15:09 242K
20260504T12Z_MSC_RDPS_SoilTemp_Sfc_RLatLon0.09_PT073H.grib2 2026-05-04 15:09 278K
20260504T12Z_MSC_RDPS_SoilVolumetricIceContent_Sfc_RLatLon0.09_PT073H.grib2 2026-05-04 15:09 151K
20260504T12Z_MSC_RDPS_SoilVolumetricWaterContent_DBS-0to10cm_RLatLon0.09_PT073H.grib2 2026-05-04 15:09 284K
20260504T12Z_MSC_RDPS_SoilVolumetricWaterContent_DBS-0to1cm_RLatLon0.09_PT073H.grib2 2026-05-04 15:09 346K
20260504T12Z_MSC_RDPS_SpecificHumidity_AGL-120m_RLatLon0.09_PT073H.grib2 2026-05-04 15:09 507K
20260504T12Z_MSC_RDPS_SpecificHumidity_AGL-2m_RLatLon0.09_PT073H.grib2 2026-05-04 15:09 674K
20260504T12Z_MSC_RDPS_SpecificHumidity_AGL-40m_RLatLon0.09_PT073H.grib2 2026-05-04 15:09 512K
20260504T12Z_MSC_RDPS_SpecificHumidity_AGL-80m_RLatLon0.09_PT073H.grib2 2026-05-04 15:09 509K
20260504T12Z_MSC_RDPS_SpecificHumidity_IsbL-0001_RLatLon0.09_PT073H.grib2 2026-05-04 15:09 374K
20260504T12Z_MSC_RDPS_SpecificHumidity_IsbL-0005_RLatLon0.09_PT073H.grib2 2026-05-04 15:09 365K
20260504T12Z_MSC_RDPS_SpecificHumidity_IsbL-0010_RLatLon0.09_PT073H.grib2 2026-05-04 15:09 397K
20260504T12Z_MSC_RDPS_SpecificHumidity_IsbL-0020_RLatLon0.09_PT073H.grib2 2026-05-04 15:09 376K
20260504T12Z_MSC_RDPS_SpecificHumidity_IsbL-0030_RLatLon0.09_PT073H.grib2 2026-05-04 15:09 359K
20260504T12Z_MSC_RDPS_SpecificHumidity_IsbL-0050_RLatLon0.09_PT073H.grib2 2026-05-04 15:09 468K
20260504T12Z_MSC_RDPS_SpecificHumidity_IsbL-0100_RLatLon0.09_PT073H.grib2 2026-05-04 15:09 415K
20260504T12Z_MSC_RDPS_SpecificHumidity_IsbL-0150_RLatLon0.09_PT073H.grib2 2026-05-04 15:09 469K
20260504T12Z_MSC_RDPS_SpecificHumidity_IsbL-0175_RLatLon0.09_PT073H.grib2 2026-05-04 15:09 434K
20260504T12Z_MSC_RDPS_SpecificHumidity_IsbL-0200_RLatLon0.09_PT073H.grib2 2026-05-04 15:09 466K
20260504T12Z_MSC_RDPS_SpecificHumidity_IsbL-0225_RLatLon0.09_PT073H.grib2 2026-05-04 15:09 446K
20260504T12Z_MSC_RDPS_SpecificHumidity_IsbL-0250_RLatLon0.09_PT073H.grib2 2026-05-04 15:09 549K
20260504T12Z_MSC_RDPS_SpecificHumidity_IsbL-0275_RLatLon0.09_PT073H.grib2 2026-05-04 15:09 466K
20260504T12Z_MSC_RDPS_SpecificHumidity_IsbL-0300_RLatLon0.09_PT073H.grib2 2026-05-04 15:09 538K
20260504T12Z_MSC_RDPS_SpecificHumidity_IsbL-0350_RLatLon0.09_PT073H.grib2 2026-05-04 15:09 533K
20260504T12Z_MSC_RDPS_SpecificHumidity_IsbL-0400_RLatLon0.09_PT073H.grib2 2026-05-04 15:09 514K
20260504T12Z_MSC_RDPS_SpecificHumidity_IsbL-0450_RLatLon0.09_PT073H.grib2 2026-05-04 15:09 568K
20260504T12Z_MSC_RDPS_SpecificHumidity_IsbL-0500_RLatLon0.09_PT073H.grib2 2026-05-04 15:09 500K
20260504T12Z_MSC_RDPS_SpecificHumidity_IsbL-0550_RLatLon0.09_PT073H.grib2 2026-05-04 15:09 554K
20260504T12Z_MSC_RDPS_SpecificHumidity_IsbL-0600_RLatLon0.09_PT073H.grib2 2026-05-04 15:09 621K
20260504T12Z_MSC_RDPS_SpecificHumidity_IsbL-0650_RLatLon0.09_PT073H.grib2 2026-05-04 15:09 536K
20260504T12Z_MSC_RDPS_SpecificHumidity_IsbL-0700_RLatLon0.09_PT073H.grib2 2026-05-04 15:09 575K
20260504T12Z_MSC_RDPS_SpecificHumidity_IsbL-0750_RLatLon0.09_PT073H.grib2 2026-05-04 15:09 633K
20260504T12Z_MSC_RDPS_SpecificHumidity_IsbL-0800_RLatLon0.09_PT073H.grib2 2026-05-04 15:09 728K
20260504T12Z_MSC_RDPS_SpecificHumidity_IsbL-0850_RLatLon0.09_PT073H.grib2 2026-05-04 15:09 816K
20260504T12Z_MSC_RDPS_SpecificHumidity_IsbL-0875_RLatLon0.09_PT073H.grib2 2026-05-04 15:09 843K
20260504T12Z_MSC_RDPS_SpecificHumidity_IsbL-0900_RLatLon0.09_PT073H.grib2 2026-05-04 15:09 855K
20260504T12Z_MSC_RDPS_SpecificHumidity_IsbL-0925_RLatLon0.09_PT073H.grib2 2026-05-04 15:09 858K
20260504T12Z_MSC_RDPS_SpecificHumidity_IsbL-0950_RLatLon0.09_PT073H.grib2 2026-05-04 15:09 856K
20260504T12Z_MSC_RDPS_SpecificHumidity_IsbL-0970_RLatLon0.09_PT073H.grib2 2026-05-04 15:09 849K
20260504T12Z_MSC_RDPS_SpecificHumidity_IsbL-0985_RLatLon0.09_PT073H.grib2 2026-05-04 15:09 703K
20260504T12Z_MSC_RDPS_SpecificHumidity_IsbL-1000_RLatLon0.09_PT073H.grib2 2026-05-04 15:09 699K
20260504T12Z_MSC_RDPS_SpecificHumidity_IsbL-1015_RLatLon0.09_PT073H.grib2 2026-05-04 15:09 686K
20260504T12Z_MSC_RDPS_SpecificHumidity_Sfc_RLatLon0.09_PT073H.grib2 2026-05-04 15:09 309K
20260504T12Z_MSC_RDPS_StormRelativeHelicity_EtaL-10000_RLatLon0.09_PT073H.grib2 2026-05-04 15:09 1.1M
20260504T12Z_MSC_RDPS_StormSeverityIndex_EtaL-10000_RLatLon0.09_PT073H.grib2 2026-05-04 15:09 1.1M
20260504T12Z_MSC_RDPS_Thickness_IsbL-0850to0700_RLatLon0.09_PT073H.grib2 2026-05-04 15:09 244K
20260504T12Z_MSC_RDPS_Thickness_IsbL-1000to0500_RLatLon0.09_PT073H.grib2 2026-05-04 15:09 191K
20260504T12Z_MSC_RDPS_Thickness_IsbL-1000to0850_RLatLon0.09_PT073H.grib2 2026-05-04 15:09 260K
20260504T12Z_MSC_RDPS_TotalCloudCover_Sfc_RLatLon0.09_PT073H.grib2 2026-05-04 15:09 683K
20260504T12Z_MSC_RDPS_TotalTotalsIndex_Sfc_RLatLon0.09_PT073H.grib2 2026-05-04 15:09 2.4M
20260504T12Z_MSC_RDPS_UVIndex-ClearSky_Sfc_RLatLon0.09_PT073H.grib2 2026-05-04 15:09 199K
20260504T12Z_MSC_RDPS_UVIndex_Sfc_RLatLon0.09_PT073H.grib2 2026-05-04 15:09 442K
20260504T12Z_MSC_RDPS_UpwardLongwaveRadiationFlux_NTAtm_RLatLon0.09_PT073H.grib2 2026-05-04 15:09 491K
20260504T12Z_MSC_RDPS_UpwardShortwaveRadiationFlux_NTAtm_RLatLon0.09_PT073H.grib2 2026-05-04 15:09 376K
20260504T12Z_MSC_RDPS_VerticalVelocity_IsbL-0250_RLatLon0.09_PT073H.grib2 2026-05-04 15:09 547K
20260504T12Z_MSC_RDPS_VerticalVelocity_IsbL-0500_RLatLon0.09_PT073H.grib2 2026-05-04 15:09 571K
20260504T12Z_MSC_RDPS_VerticalVelocity_IsbL-0700_RLatLon0.09_PT073H.grib2 2026-05-04 15:09 584K
20260504T12Z_MSC_RDPS_VerticalVelocity_IsbL-0850_RLatLon0.09_PT073H.grib2 2026-05-04 15:09 832K
20260504T12Z_MSC_RDPS_VerticalWindShear_EtaL-6500_RLatLon0.09_PT073H.grib2 2026-05-04 15:09 1.2M
20260504T12Z_MSC_RDPS_WindChill_Sfc_RLatLon0.09_PT073H.grib2 2026-05-04 15:09 1.2M
20260504T12Z_MSC_RDPS_WindDir_AGL-10m_RLatLon0.09_PT073H.grib2 2026-05-04 15:09 1.0M
20260504T12Z_MSC_RDPS_WindDir_AGL-120m_RLatLon0.09_PT073H.grib2 2026-05-04 15:09 628K
20260504T12Z_MSC_RDPS_WindDir_AGL-40m_RLatLon0.09_PT073H.grib2 2026-05-04 15:09 657K
20260504T12Z_MSC_RDPS_WindDir_AGL-80m_RLatLon0.09_PT073H.grib2 2026-05-04 15:09 640K
20260504T12Z_MSC_RDPS_WindDir_IsbL-0001_RLatLon0.09_PT073H.grib2 2026-05-04 15:09 301K
20260504T12Z_MSC_RDPS_WindDir_IsbL-0005_RLatLon0.09_PT073H.grib2 2026-05-04 15:09 382K
20260504T12Z_MSC_RDPS_WindDir_IsbL-0010_RLatLon0.09_PT073H.grib2 2026-05-04 15:09 380K
20260504T12Z_MSC_RDPS_WindDir_IsbL-0020_RLatLon0.09_PT073H.grib2 2026-05-04 15:09 412K
20260504T12Z_MSC_RDPS_WindDir_IsbL-0030_RLatLon0.09_PT073H.grib2 2026-05-04 15:09 412K
20260504T12Z_MSC_RDPS_WindDir_IsbL-0050_RLatLon0.09_PT073H.grib2 2026-05-04 15:09 434K
20260504T12Z_MSC_RDPS_WindDir_IsbL-0100_RLatLon0.09_PT073H.grib2 2026-05-04 15:09 418K
20260504T12Z_MSC_RDPS_WindDir_IsbL-0150_RLatLon0.09_PT073H.grib2 2026-05-04 15:09 419K
20260504T12Z_MSC_RDPS_WindDir_IsbL-0175_RLatLon0.09_PT073H.grib2 2026-05-04 15:09 440K
20260504T12Z_MSC_RDPS_WindDir_IsbL-0200_RLatLon0.09_PT073H.grib2 2026-05-04 15:09 456K
20260504T12Z_MSC_RDPS_WindDir_IsbL-0225_RLatLon0.09_PT073H.grib2 2026-05-04 15:09 460K
20260504T12Z_MSC_RDPS_WindDir_IsbL-0250_RLatLon0.09_PT073H.grib2 2026-05-04 15:09 456K
20260504T12Z_MSC_RDPS_WindDir_IsbL-0275_RLatLon0.09_PT073H.grib2 2026-05-04 15:09 474K
20260504T12Z_MSC_RDPS_WindDir_IsbL-0300_RLatLon0.09_PT073H.grib2 2026-05-04 15:09 470K
20260504T12Z_MSC_RDPS_WindDir_IsbL-0350_RLatLon0.09_PT073H.grib2 2026-05-04 15:09 496K
20260504T12Z_MSC_RDPS_WindDir_IsbL-0400_RLatLon0.09_PT073H.grib2 2026-05-04 15:09 509K
20260504T12Z_MSC_RDPS_WindDir_IsbL-0450_RLatLon0.09_PT073H.grib2 2026-05-04 15:09 528K
20260504T12Z_MSC_RDPS_WindDir_IsbL-0500_RLatLon0.09_PT073H.grib2 2026-05-04 15:09 542K
20260504T12Z_MSC_RDPS_WindDir_IsbL-0550_RLatLon0.09_PT073H.grib2 2026-05-04 15:09 559K
20260504T12Z_MSC_RDPS_WindDir_IsbL-0600_RLatLon0.09_PT073H.grib2 2026-05-04 15:09 584K
20260504T12Z_MSC_RDPS_WindDir_IsbL-0650_RLatLon0.09_PT073H.grib2 2026-05-04 15:09 629K
20260504T12Z_MSC_RDPS_WindDir_IsbL-0700_RLatLon0.09_PT073H.grib2 2026-05-04 15:09 671K
20260504T12Z_MSC_RDPS_WindDir_IsbL-0750_RLatLon0.09_PT073H.grib2 2026-05-04 15:09 718K
20260504T12Z_MSC_RDPS_WindDir_IsbL-0800_RLatLon0.09_PT073H.grib2 2026-05-04 15:09 791K
20260504T12Z_MSC_RDPS_WindDir_IsbL-0850_RLatLon0.09_PT073H.grib2 2026-05-04 15:09 869K
20260504T12Z_MSC_RDPS_WindDir_IsbL-0875_RLatLon0.09_PT073H.grib2 2026-05-04 15:09 899K
20260504T12Z_MSC_RDPS_WindDir_IsbL-0900_RLatLon0.09_PT073H.grib2 2026-05-04 15:09 920K
20260504T12Z_MSC_RDPS_WindDir_IsbL-0925_RLatLon0.09_PT073H.grib2 2026-05-04 15:09 934K
20260504T12Z_MSC_RDPS_WindDir_IsbL-0950_RLatLon0.09_PT073H.grib2 2026-05-04 15:09 937K
20260504T12Z_MSC_RDPS_WindDir_IsbL-0970_RLatLon0.09_PT073H.grib2 2026-05-04 15:09 941K
20260504T12Z_MSC_RDPS_WindDir_IsbL-0985_RLatLon0.09_PT073H.grib2 2026-05-04 15:09 952K
20260504T12Z_MSC_RDPS_WindDir_IsbL-1000_RLatLon0.09_PT073H.grib2 2026-05-04 15:09 967K
20260504T12Z_MSC_RDPS_WindDir_IsbL-1015_RLatLon0.09_PT073H.grib2 2026-05-04 15:09 1.0M
20260504T12Z_MSC_RDPS_WindGust-Max_AGL-10m_RLatLon0.09_PT073H.grib2 2026-05-04 15:09 1.0M
20260504T12Z_MSC_RDPS_WindGust-Min_AGL-10m_RLatLon0.09_PT073H.grib2 2026-05-04 15:09 972K
20260504T12Z_MSC_RDPS_WindGust_AGL-10m_RLatLon0.09_PT073H.grib2 2026-05-04 15:09 1.0M
20260504T12Z_MSC_RDPS_WindSpeed_AGL-10m_RLatLon0.09_PT073H.grib2 2026-05-04 15:09 845K
20260504T12Z_MSC_RDPS_WindSpeed_AGL-120m_RLatLon0.09_PT073H.grib2 2026-05-04 15:09 546K
20260504T12Z_MSC_RDPS_WindSpeed_AGL-40m_RLatLon0.09_PT073H.grib2 2026-05-04 15:09 676K
20260504T12Z_MSC_RDPS_WindSpeed_AGL-80m_RLatLon0.09_PT073H.grib2 2026-05-04 15:09 546K
20260504T12Z_MSC_RDPS_WindSpeed_IsbL-0001_RLatLon0.09_PT073H.grib2 2026-05-04 15:09 334K
20260504T12Z_MSC_RDPS_WindSpeed_IsbL-0005_RLatLon0.09_PT073H.grib2 2026-05-04 15:09 295K
20260504T12Z_MSC_RDPS_WindSpeed_IsbL-0010_RLatLon0.09_PT073H.grib2 2026-05-04 15:09 399K
20260504T12Z_MSC_RDPS_WindSpeed_IsbL-0020_RLatLon0.09_PT073H.grib2 2026-05-04 15:09 425K
20260504T12Z_MSC_RDPS_WindSpeed_IsbL-0030_RLatLon0.09_PT073H.grib2 2026-05-04 15:09 321K
20260504T12Z_MSC_RDPS_WindSpeed_IsbL-0050_RLatLon0.09_PT073H.grib2 2026-05-04 15:09 346K
20260504T12Z_MSC_RDPS_WindSpeed_IsbL-0100_RLatLon0.09_PT073H.grib2 2026-05-04 15:09 432K
20260504T12Z_MSC_RDPS_WindSpeed_IsbL-0150_RLatLon0.09_PT073H.grib2 2026-05-04 15:09 394K
20260504T12Z_MSC_RDPS_WindSpeed_IsbL-0175_RLatLon0.09_PT073H.grib2 2026-05-04 15:09 419K
20260504T12Z_MSC_RDPS_WindSpeed_IsbL-0200_RLatLon0.09_PT073H.grib2 2026-05-04 15:09 436K
20260504T12Z_MSC_RDPS_WindSpeed_IsbL-0225_RLatLon0.09_PT073H.grib2 2026-05-04 15:09 440K
20260504T12Z_MSC_RDPS_WindSpeed_IsbL-0250_RLatLon0.09_PT073H.grib2 2026-05-04 15:09 439K
20260504T12Z_MSC_RDPS_WindSpeed_IsbL-0275_RLatLon0.09_PT073H.grib2 2026-05-04 15:09 457K
20260504T12Z_MSC_RDPS_WindSpeed_IsbL-0300_RLatLon0.09_PT073H.grib2 2026-05-04 15:09 456K
20260504T12Z_MSC_RDPS_WindSpeed_IsbL-0350_RLatLon0.09_PT073H.grib2 2026-05-04 15:09 471K
20260504T12Z_MSC_RDPS_WindSpeed_IsbL-0400_RLatLon0.09_PT073H.grib2 2026-05-04 15:09 455K
20260504T12Z_MSC_RDPS_WindSpeed_IsbL-0450_RLatLon0.09_PT073H.grib2 2026-05-04 15:09 455K
20260504T12Z_MSC_RDPS_WindSpeed_IsbL-0500_RLatLon0.09_PT073H.grib2 2026-05-04 15:09 573K
20260504T12Z_MSC_RDPS_WindSpeed_IsbL-0550_RLatLon0.09_PT073H.grib2 2026-05-04 15:09 571K
20260504T12Z_MSC_RDPS_WindSpeed_IsbL-0600_RLatLon0.09_PT073H.grib2 2026-05-04 15:09 580K
20260504T12Z_MSC_RDPS_WindSpeed_IsbL-0650_RLatLon0.09_PT073H.grib2 2026-05-04 15:09 601K
20260504T12Z_MSC_RDPS_WindSpeed_IsbL-0700_RLatLon0.09_PT073H.grib2 2026-05-04 15:09 669K
20260504T12Z_MSC_RDPS_WindSpeed_IsbL-0750_RLatLon0.09_PT073H.grib2 2026-05-04 15:09 700K
20260504T12Z_MSC_RDPS_WindSpeed_IsbL-0800_RLatLon0.09_PT073H.grib2 2026-05-04 15:09 753K
20260504T12Z_MSC_RDPS_WindSpeed_IsbL-0850_RLatLon0.09_PT073H.grib2 2026-05-04 15:09 815K
20260504T12Z_MSC_RDPS_WindSpeed_IsbL-0875_RLatLon0.09_PT073H.grib2 2026-05-04 15:09 839K
20260504T12Z_MSC_RDPS_WindSpeed_IsbL-0900_RLatLon0.09_PT073H.grib2 2026-05-04 15:09 854K
20260504T12Z_MSC_RDPS_WindSpeed_IsbL-0925_RLatLon0.09_PT073H.grib2 2026-05-04 15:09 866K
20260504T12Z_MSC_RDPS_WindSpeed_IsbL-0950_RLatLon0.09_PT073H.grib2 2026-05-04 15:09 867K
20260504T12Z_MSC_RDPS_WindSpeed_IsbL-0970_RLatLon0.09_PT073H.grib2 2026-05-04 15:09 864K
20260504T12Z_MSC_RDPS_WindSpeed_IsbL-0985_RLatLon0.09_PT073H.grib2 2026-05-04 15:09 859K
20260504T12Z_MSC_RDPS_WindSpeed_IsbL-1000_RLatLon0.09_PT073H.grib2 2026-05-04 15:09 854K
20260504T12Z_MSC_RDPS_WindSpeed_IsbL-1015_RLatLon0.09_PT073H.grib2 2026-05-04 15:09 844K
20260504T12Z_MSC_RDPS_WindU_AGL-10m_RLatLon0.09_PT073H.grib2 2026-05-04 15:09 436K
20260504T12Z_MSC_RDPS_WindU_AGL-120m_RLatLon0.09_PT073H.grib2 2026-05-04 15:09 542K
20260504T12Z_MSC_RDPS_WindU_AGL-40m_RLatLon0.09_PT073H.grib2 2026-05-04 15:09 544K
20260504T12Z_MSC_RDPS_WindU_AGL-80m_RLatLon0.09_PT073H.grib2 2026-05-04 15:09 543K
20260504T12Z_MSC_RDPS_WindU_IsbL-0001_RLatLon0.09_PT073H.grib2 2026-05-04 15:09 295K
20260504T12Z_MSC_RDPS_WindU_IsbL-0005_RLatLon0.09_PT073H.grib2 2026-05-04 15:09 286K
20260504T12Z_MSC_RDPS_WindU_IsbL-0010_RLatLon0.09_PT073H.grib2 2026-05-04 15:09 299K
20260504T12Z_MSC_RDPS_WindU_IsbL-0020_RLatLon0.09_PT073H.grib2 2026-05-04 15:09 320K
20260504T12Z_MSC_RDPS_WindU_IsbL-0030_RLatLon0.09_PT073H.grib2 2026-05-04 15:09 354K
20260504T12Z_MSC_RDPS_WindU_IsbL-0050_RLatLon0.09_PT073H.grib2 2026-05-04 15:09 377K
20260504T12Z_MSC_RDPS_WindU_IsbL-0100_RLatLon0.09_PT073H.grib2 2026-05-04 15:09 332K
20260504T12Z_MSC_RDPS_WindU_IsbL-0150_RLatLon0.09_PT073H.grib2 2026-05-04 15:09 388K
20260504T12Z_MSC_RDPS_WindU_IsbL-0175_RLatLon0.09_PT073H.grib2 2026-05-04 15:09 414K
20260504T12Z_MSC_RDPS_WindU_IsbL-0200_RLatLon0.09_PT073H.grib2 2026-05-04 15:09 333K
20260504T12Z_MSC_RDPS_WindU_IsbL-0225_RLatLon0.09_PT073H.grib2 2026-05-04 15:09 336K
20260504T12Z_MSC_RDPS_WindU_IsbL-0250_RLatLon0.09_PT073H.grib2 2026-05-04 15:09 334K
20260504T12Z_MSC_RDPS_WindU_IsbL-0275_RLatLon0.09_PT073H.grib2 2026-05-04 15:09 348K
20260504T12Z_MSC_RDPS_WindU_IsbL-0300_RLatLon0.09_PT073H.grib2 2026-05-04 15:09 345K
20260504T12Z_MSC_RDPS_WindU_IsbL-0350_RLatLon0.09_PT073H.grib2 2026-05-04 15:09 357K
20260504T12Z_MSC_RDPS_WindU_IsbL-0400_RLatLon0.09_PT073H.grib2 2026-05-04 15:09 358K
20260504T12Z_MSC_RDPS_WindU_IsbL-0450_RLatLon0.09_PT073H.grib2 2026-05-04 15:09 460K
20260504T12Z_MSC_RDPS_WindU_IsbL-0500_RLatLon0.09_PT073H.grib2 2026-05-04 15:09 460K
20260504T12Z_MSC_RDPS_WindU_IsbL-0550_RLatLon0.09_PT073H.grib2 2026-05-04 15:09 460K
20260504T12Z_MSC_RDPS_WindU_IsbL-0600_RLatLon0.09_PT073H.grib2 2026-05-04 15:09 468K
20260504T12Z_MSC_RDPS_WindU_IsbL-0650_RLatLon0.09_PT073H.grib2 2026-05-04 15:09 486K
20260504T12Z_MSC_RDPS_WindU_IsbL-0700_RLatLon0.09_PT073H.grib2 2026-05-04 15:09 508K
20260504T12Z_MSC_RDPS_WindU_IsbL-0750_RLatLon0.09_PT073H.grib2 2026-05-04 15:09 535K
20260504T12Z_MSC_RDPS_WindU_IsbL-0800_RLatLon0.09_PT073H.grib2 2026-05-04 15:09 568K
20260504T12Z_MSC_RDPS_WindU_IsbL-0850_RLatLon0.09_PT073H.grib2 2026-05-04 15:09 627K
20260504T12Z_MSC_RDPS_WindU_IsbL-0875_RLatLon0.09_PT073H.grib2 2026-05-04 15:09 648K
20260504T12Z_MSC_RDPS_WindU_IsbL-0900_RLatLon0.09_PT073H.grib2 2026-05-04 15:09 659K
20260504T12Z_MSC_RDPS_WindU_IsbL-0925_RLatLon0.09_PT073H.grib2 2026-05-04 15:09 666K
20260504T12Z_MSC_RDPS_WindU_IsbL-0950_RLatLon0.09_PT073H.grib2 2026-05-04 15:09 805K
20260504T12Z_MSC_RDPS_WindU_IsbL-0970_RLatLon0.09_PT073H.grib2 2026-05-04 15:09 800K
20260504T12Z_MSC_RDPS_WindU_IsbL-0985_RLatLon0.09_PT073H.grib2 2026-05-04 15:09 796K
20260504T12Z_MSC_RDPS_WindU_IsbL-1000_RLatLon0.09_PT073H.grib2 2026-05-04 15:09 793K
20260504T12Z_MSC_RDPS_WindU_IsbL-1015_RLatLon0.09_PT073H.grib2 2026-05-04 15:09 833K
20260504T12Z_MSC_RDPS_WindV_AGL-10m_RLatLon0.09_PT073H.grib2 2026-05-04 15:09 432K
20260504T12Z_MSC_RDPS_WindV_AGL-120m_RLatLon0.09_PT073H.grib2 2026-05-04 15:09 539K
20260504T12Z_MSC_RDPS_WindV_AGL-40m_RLatLon0.09_PT073H.grib2 2026-05-04 15:09 539K
20260504T12Z_MSC_RDPS_WindV_AGL-80m_RLatLon0.09_PT073H.grib2 2026-05-04 15:09 539K
20260504T12Z_MSC_RDPS_WindV_IsbL-0001_RLatLon0.09_PT073H.grib2 2026-05-04 15:09 248K
20260504T12Z_MSC_RDPS_WindV_IsbL-0005_RLatLon0.09_PT073H.grib2 2026-05-04 15:09 287K
20260504T12Z_MSC_RDPS_WindV_IsbL-0010_RLatLon0.09_PT073H.grib2 2026-05-04 15:09 301K
20260504T12Z_MSC_RDPS_WindV_IsbL-0020_RLatLon0.09_PT073H.grib2 2026-05-04 15:09 322K
20260504T12Z_MSC_RDPS_WindV_IsbL-0030_RLatLon0.09_PT073H.grib2 2026-05-04 15:09 317K
20260504T12Z_MSC_RDPS_WindV_IsbL-0050_RLatLon0.09_PT073H.grib2 2026-05-04 15:09 342K
20260504T12Z_MSC_RDPS_WindV_IsbL-0100_RLatLon0.09_PT073H.grib2 2026-05-04 15:09 422K
20260504T12Z_MSC_RDPS_WindV_IsbL-0150_RLatLon0.09_PT073H.grib2 2026-05-04 15:09 387K
20260504T12Z_MSC_RDPS_WindV_IsbL-0175_RLatLon0.09_PT073H.grib2 2026-05-04 15:09 411K
20260504T12Z_MSC_RDPS_WindV_IsbL-0200_RLatLon0.09_PT073H.grib2 2026-05-04 15:09 428K
20260504T12Z_MSC_RDPS_WindV_IsbL-0225_RLatLon0.09_PT073H.grib2 2026-05-04 15:09 334K
20260504T12Z_MSC_RDPS_WindV_IsbL-0250_RLatLon0.09_PT073H.grib2 2026-05-04 15:09 333K
20260504T12Z_MSC_RDPS_WindV_IsbL-0275_RLatLon0.09_PT073H.grib2 2026-05-04 15:09 346K
20260504T12Z_MSC_RDPS_WindV_IsbL-0300_RLatLon0.09_PT073H.grib2 2026-05-04 15:09 343K
20260504T12Z_MSC_RDPS_WindV_IsbL-0350_RLatLon0.09_PT073H.grib2 2026-05-04 15:09 354K
20260504T12Z_MSC_RDPS_WindV_IsbL-0400_RLatLon0.09_PT073H.grib2 2026-05-04 15:09 459K
20260504T12Z_MSC_RDPS_WindV_IsbL-0450_RLatLon0.09_PT073H.grib2 2026-05-04 15:09 458K
20260504T12Z_MSC_RDPS_WindV_IsbL-0500_RLatLon0.09_PT073H.grib2 2026-05-04 15:09 458K
20260504T12Z_MSC_RDPS_WindV_IsbL-0550_RLatLon0.09_PT073H.grib2 2026-05-04 15:09 457K
20260504T12Z_MSC_RDPS_WindV_IsbL-0600_RLatLon0.09_PT073H.grib2 2026-05-04 15:09 465K
20260504T12Z_MSC_RDPS_WindV_IsbL-0650_RLatLon0.09_PT073H.grib2 2026-05-04 15:09 483K
20260504T12Z_MSC_RDPS_WindV_IsbL-0700_RLatLon0.09_PT073H.grib2 2026-05-04 15:09 503K
20260504T12Z_MSC_RDPS_WindV_IsbL-0750_RLatLon0.09_PT073H.grib2 2026-05-04 15:09 516K
20260504T12Z_MSC_RDPS_WindV_IsbL-0800_RLatLon0.09_PT073H.grib2 2026-05-04 15:09 562K
20260504T12Z_MSC_RDPS_WindV_IsbL-0850_RLatLon0.09_PT073H.grib2 2026-05-04 15:09 623K
20260504T12Z_MSC_RDPS_WindV_IsbL-0875_RLatLon0.09_PT073H.grib2 2026-05-04 15:09 644K
20260504T12Z_MSC_RDPS_WindV_IsbL-0900_RLatLon0.09_PT073H.grib2 2026-05-04 15:09 655K
20260504T12Z_MSC_RDPS_WindV_IsbL-0925_RLatLon0.09_PT073H.grib2 2026-05-04 15:09 663K
20260504T12Z_MSC_RDPS_WindV_IsbL-0950_RLatLon0.09_PT073H.grib2 2026-05-04 15:09 803K
20260504T12Z_MSC_RDPS_WindV_IsbL-0970_RLatLon0.09_PT073H.grib2 2026-05-04 15:09 798K
20260504T12Z_MSC_RDPS_WindV_IsbL-0985_RLatLon0.09_PT073H.grib2 2026-05-04 15:09 793K
20260504T12Z_MSC_RDPS_WindV_IsbL-1000_RLatLon0.09_PT073H.grib2 2026-05-04 15:09 835K
20260504T12Z_MSC_RDPS_WindV_IsbL-1015_RLatLon0.09_PT073H.grib2 2026-05-04 15:09 827K